Regional Weather Roundup
Issued by NWS Midland/Odessa, TX

Home | Current Version | Previous Version | Text Only | Print | Product List | Glossary On
Versions: 1 2 3 4 5 6 7 8 9 10 11 12 13 14 15 16 17 18 19 20 21 22 23 24 25 26 27 28 29 30 31 32 33 34 35 36 37 38 39 40 41 42 43 44 45 46 47 48 49 50
000
ASUS44 KMAF 211710
RWRMAF
MIDLAND AREA WEATHER ROUNDUP
NATIONAL WEATHER SERVICE MIDLAND TX
1200 PM CDT TUE OCT 21 2014

...IN SOUTHWEST TEXAS AND SOUTHEAST NEW MEXICO...

CITY           SKY/WX    TMP DP  RH WIND       PRES   REMARKS
ALPINE         CLOUDY    60  55  84 CALM      30.20S
ANDREWS        CLOUDY    69  57  65 S10       30.14F
ARTESIA        NOT AVBL
BIG SPRING     MOSUNNY   74  60  61 S6        30.15F
CARLSBAD       CLOUDY    65  60  84 S7        30.11S
DRYDEN           N/A     69  62  78 E12       30.08F
FORT STOCKTON  CLOUDY    64  61  90 SE15      30.11S
GUAD PASS      MOSUNNY   61  53  75 E17       30.19R
HOBBS          CLOUDY    64  57  77 SE12      30.15F
MARFA          CLOUDY    59  54  82 SE5       30.18S
MIDLAND AIRPK  MOSUNNY   73  57  56 SE9       30.13F
MIDLAND INTL   CLOUDY    72  57  59 S13       30.12F
ODESSA         CLOUDY    68  57  68 S15       30.14S
PECOS          CLOUDY    68  62  79 E14       30.09F
PRESIDIO         N/A    N/A N/A N/A MISG        N/A
SEMINOLE       MOSUNNY   68  57  68 S9        30.15F
SNYDER         SUNNY     70  59  68 S7        30.14F
WINK           CLOUDY    66  61  84 SE14      30.10S
$$
...OTHER STATIONS IN TEXAS...

CITY           SKY/WX    TMP DP  RH WIND       PRES   REMARKS
ABILENE        MOSUNNY   77  56  48 S10       30.12F
AMARILLO       MOSUNNY   72  53  51 SW13      30.14F
AUSTIN         MOSUNNY   76  59  55 NE9       30.09F
BROWNSVILLE    PTSUNNY   84  70  62 E14G20    29.95F
CORPUS CHRISTI MOSUNNY   80  70  71 NE15      30.02S
DALLAS FTW     SUNNY     77  58  51 VRB5      30.10F
DEL RIO        CLOUDY    74  63  68 SE10      30.04F
EL PASO        PTSUNNY   66  53  63 CALM      30.10S
HOUSTON INT    SUNNY     77  55  46 E9        30.08S
LUBBOCK        MOSUNNY   70  55  59 SW6       30.14F
SAN ANGELO     SUNNY     75  57  53 NE6       30.11F
SAN ANTONIO    MOSUNNY   79  58  48 E8        30.07F
WACO           SUNNY     75  59  57 E6        30.11S
WICHITA FALLS  NOT AVBL
$$
...OTHER LOCATIONS IN NEW MEXICO...

CITY           SKY/WX    TMP DP  RH WIND       PRES   REMARKS
ALAMAGORDO     NOT AVBL
ALBUQUERQUE    MOSUNNY   60  48  64 SW6       30.18R
CANNON AFB     SUNNY     67  53  59 S9        30.16F
CLOVIS         NOT AVBL
HOLLOMAN AFB   MOSUNNY   61  61 100 VRB1      30.12F
ROSWELL        CLOUDY    62  57  83 CALM      30.13F
RUIDOSO        CLOUDY    50  48  93 E5        30.26R
SANTA FE       CLOUDY    56  47  71 VRB6      30.21S
TRUTH OR CONSE CLOUDY    58  51  78 N7        30.15S
TUCUMCARI      MOSUNNY   70  51  51 VRB3      30.13F
$$



USA.gov is the U.S. government's official web portal to all federal, state and local government web resources and services.